Location: Writing-on-Stone Provincial Park
(49.0825°N, 111.6163°W)
Time: 13:17:29
(UTC-06:00)

Amateur Radio Satellites - All Passes

Search period start: 23 July 2016 12:47
Search period end: 24 July 2016 12:47
Location: Writing-on-Stone Provincial Park, 49.0825°N, 111.6163°W

Satellite Date Start Highest point End Downlink Frequencies (MHz)
Time Altitude Azimuth
SO-50 23 Jul 12:49:34 12:53:05 19° 335° (NNW) 12:56:33 436.795
POPSAT HIP 1 23 Jul 12:49:53 12:53:41 31° 264° (W) 12:57:31 437.405
DX 1 23 Jul 12:50:07 12:53:49 26° 95° (E) 12:57:30 434.975-435.025
ESTCUBE 1 23 Jul 12:51:21 12:55:48 59° 101° (E) 13:00:14 437.505/2401.250
HO-68 23 Jul 13:00:09 13:01:45 11° 325° (NW) 13:03:20 435.675
BUGSAT 1 23 Jul 13:02:51 13:06:49 50° 260° (W) 13:10:52 437.445
QB50P2 23 Jul 13:10:37 13:13:42 19° 269° (W) 13:16:49 145.880/145.840
M-CUBED/EXP-1 PRIME 23 Jul 13:10:45 13:14:05 20° 305° (NW) 13:17:29 437.505
50 SAT 23 Jul 13:11:41 13:15:18 62° 102° (ESE) 13:18:51 437.505
UKube-1 23 Jul 13:11:54 13:15:53 34° 97° (E) 13:19:50 .
POLYITAN 1 23 Jul 13:13:17 13:16:21 19° 269° (W) 13:19:27 437.675
Oscar 19 23 Jul 13:17:46 13:22:37 46° 67° (ENE) 13:27:30 437.125/150
HUMSAT D 23 Jul 13:26:07 13:28:28 15° 301° (WNW) 13:30:48 437.325/437.525
VELOX 1 23 Jul 13:26:29 13:30:57 79° 104° (ESE) 13:35:24 145.980
TISAT 1 23 Jul 13:30:58 13:32:45 12° 88° (E) 13:34:33 437.305
CUBEBUG 1 23 Jul 13:39:14 13:43:37 68° 286° (WNW) 13:47:58 437.445
AUBIESAT-1 23 Jul 13:41:29 13:43:47 14° 310° (NW) 13:46:06 437.475
SPROUT 23 Jul 13:53:32 13:57:53 76° 103° (ESE) 14:02:12 437.525
YUBILEINY 23 Jul 14:00:59 14:06:11 17° 312° (NW) 14:11:25 435.215
Gurwin Techsat 1B 23 Jul 14:03:15 14:08:25 54° 68° (ENE) 14:13:36 435.225
AISAT 23 Jul 14:11:07 14:15:14 38° 293° (WNW) 14:19:21 437.250
AO-7 23 Jul 14:13:14 14:20:06 30° 48° (NE) 14:26:59 29.400- 29.500
DX 1 23 Jul 14:26:04 14:30:06 37° 293° (WNW) 14:34:09 434.975-435.025
ESTCUBE 1 23 Jul 14:29:02 14:32:14 19° 300° (WNW) 14:35:23 437.505/2401.250
Cosmos 2504 23 Jul 14:30:54 14:37:59 26° 302° (WNW) 14:45:04 435.465 / 435.565
JAS-2 23 Jul 14:31:18 14:35:36 20° 269° (W) 14:39:39 435.910
SO-50 23 Jul 14:33:22 14:35:23 12° 360° (N) 14:37:24 436.795
RS-15 23 Jul 14:37:06 14:48:41 45° 22° (NNE) 15:00:23 29.354- 29.394
AIST 1 23 Jul 14:37:52 14:42:03 62° 96° (E) 14:46:17
SWISSCUBE 23 Jul 14:40:08 14:42:58 15° 89° (E) 14:45:46 437.505
ITAMSAT 1 23 Jul 14:42:38 14:47:34 44° 66° (ENE) 14:52:32 435.822/435.867
50 SAT 23 Jul 14:46:47 14:48:28 13° 300° (WNW) 14:50:10 437.505
CUSAT 1 23 Jul 14:47:43 14:48:41 11° 68° (ENE) 14:49:40 437.405
UKube-1 23 Jul 14:48:07 14:51:52 29° 295° (WNW) 14:55:35 .
Oscar 19 23 Jul 14:57:46 15:02:08 28° 266° (W) 15:06:33 437.125/150
BEESAT 23 Jul 15:01:23 15:05:05 22° 92° (E) 15:08:46 436.000
AO-85 23 Jul 15:01:35 15:05:50 24° 114° (ESE) 15:09:56 145.980
VELOX 1 23 Jul 15:04:19 15:06:51 15° 302° (WNW) 15:09:24 145.980
TISAT 1 23 Jul 15:04:41 15:08:58 78° 284° (WNW) 15:13:13 437.305
CUBEBUG 1 23 Jul 15:18:29 15:19:05 10° 306° (NW) 15:19:40 437.445
ITUPSAT 1 23 Jul 15:21:16 15:25:34 32° 96° (E) 15:29:48 437.325
SPROUT 23 Jul 15:30:50 15:33:17 15° 302° (WNW) 15:35:44 437.525
Gurwin Techsat 1B 23 Jul 15:44:19 15:48:40 25° 268° (W) 15:53:03 435.225
Cosmos 2499 23 Jul 15:48:21 15:55:40 30° 81° (E) 16:02:52 435.465 / 435.565
AO-7 23 Jul 16:03:39 16:12:03 86° 251° (WSW) 16:20:30 29.400- 29.500
GONETS M04 23 Jul 16:05:41 16:13:53 49° 88° (E) 16:22:07
DANDE 23 Jul 16:11:46 16:14:17 34° 74° (ENE) 16:16:41 436.750
SO-50 23 Jul 16:14:17 16:17:42 19° 24° (NNE) 16:21:03 436.795
KKS-1 23 Jul 16:16:03 16:18:44 15° 89° (E) 16:21:23 437.445
SWISSCUBE 23 Jul 16:16:32 16:21:19 74° 287° (WNW) 16:26:03 437.505
AIST 1 23 Jul 16:17:32 16:20:07 16° 296° (WNW) 16:22:43
MOZHAYETS 4 23 Jul 16:19:42 16:22:55 18° 90° (E) 16:26:05
ITAMSAT 1 23 Jul 16:22:37 16:27:11 30° 265° (W) 16:31:48 435.822/435.867
CUSAT 1 23 Jul 16:28:22 16:30:44 27° 263° (W) 16:33:23 437.405
NOAA 15 23 Jul 16:29:23 16:30:29 11° 49° (NE) 16:31:36 137.62
BEESAT 23 Jul 16:38:32 16:43:11 52° 291° (WNW) 16:47:48 436.000
AO-85 23 Jul 16:40:39 16:46:00 68° 312° (NW) 16:51:01 145.980
HORYU 2 23 Jul 16:41:23 16:45:28 35° 66° (ENE) 16:49:35 437.375
TISAT 1 23 Jul 16:42:35 16:43:53 11° 305° (NW) 16:45:10 437.305
RS-15 23 Jul 16:50:31 17:02:57 88° 52° (NE) 17:15:17 29.354- 29.394
ITUPSAT 1 23 Jul 16:59:04 17:03:25 36° 295° (WNW) 17:07:46 437.325
STARS 23 Jul 17:05:29 17:09:06 24° 94° (E) 17:12:42 437.465
Cubesat XI-IV 23 Jul 17:07:38 17:10:58 17° 54° (NE) 17:14:19 437.490
BRITE-PL 23 Jul 17:09:41 17:12:17 16° 60° (ENE) 17:14:54 437.365/2234.400
LilacSat-2 23 Jul 17:20:55 17:22:25 12° 58° (ENE) 17:23:54 437.200
CUBESAT XI-V 23 Jul 17:28:45 17:30:41 12° 86° (E) 17:32:37 437.345
CUTE-I 23 Jul 17:31:25 17:35:43 25° 59° (ENE) 17:40:00 437.470
NOAA 18 23 Jul 17:32:28 17:37:02 27° 59° (ENE) 17:41:39 137.9125
Cosmos 2499 23 Jul 17:39:13 17:48:07 74° 282° (WNW) 17:56:50 435.465 / 435.565
KKS-1 23 Jul 17:51:18 17:55:46 68° 288° (WNW) 18:00:14 437.445
SO-50 23 Jul 17:54:23 17:59:05 65° 47° (NE) 18:03:37 436.795
MOZHAYETS 4 23 Jul 17:55:56 18:00:28 58° 289° (WNW) 18:04:56
SWISSCUBE 23 Jul 17:56:19 17:58:18 13° 307° (NW) 18:00:18 437.505
AO-7 23 Jul 17:59:57 18:06:00 22° 271° (W) 18:12:06 29.400- 29.500
GONETS M04 23 Jul 18:02:34 18:10:48 46° 291° (WNW) 18:19:08
NOAA 15 23 Jul 18:04:04 18:09:10 54° 68° (ENE) 18:14:17 137.62
HO-68 23 Jul 18:10:15 18:14:32 17° 44° (NE) 18:18:49 435.675
HORYU 2 23 Jul 18:18:09 18:22:04 29° 265° (W) 18:26:02 437.375
AO-85 23 Jul 18:23:24 18:27:18 21° 333° (NNW) 18:31:02 145.980
GOMX 1 23 Jul 18:31:10 18:35:08 44° 69° (ENE) 18:39:15 467.674
STARS 23 Jul 18:41:25 18:45:38 42° 292° (WNW) 18:49:49 437.465
DOVE 4 23 Jul 18:44:53 18:48:39 31° 65° (ENE) 18:52:36 437.250
Cubesat XI-IV 23 Jul 18:44:54 18:50:18 86° 74° (ENE) 18:55:44 437.490
BRITE-PL 23 Jul 18:46:17 18:50:23 59° 259° (W) 18:54:31 437.365/2234.400
LilacSat-2 23 Jul 18:52:15 18:56:08 81° 257° (WSW) 19:00:03 437.200
CUTE 1.7 + AOD 2 23 Jul 18:56:27 18:57:57 12° 56° (ENE) 18:59:27 437.475
RS-15 23 Jul 19:03:52 19:14:08 33° 256° (WSW) 19:24:19 29.354- 29.394
CUBESAT XI-V 23 Jul 19:04:06 19:08:44 86° 284° (WNW) 19:13:20 437.345
CUTE-I 23 Jul 19:10:04 19:15:23 60° 258° (WSW) 19:20:44 437.470
NOAA 18 23 Jul 19:11:56 19:17:22 57° 258° (WSW) 19:22:52 137.9125
CINEMA 3 23 Jul 19:25:55 19:29:42 27° 63° (ENE) 19:33:38 145.822/145.860
CUBEBUG 2 23 Jul 19:26:36 19:27:47 11° 53° (NE) 19:28:59 437.445
KKS-1 23 Jul 19:30:26 19:31:31 11° 307° (NW) 19:32:35 437.445
BEESAT 3 23 Jul 19:31:24 19:33:18 13° 111° (ESE) 19:35:13 437.485
SO-50 23 Jul 19:35:41 19:39:06 21° 247° (WSW) 19:42:28 436.795
Cosmos 2499 23 Jul 19:36:35 19:42:52 21° 306° (NW) 19:49:05 435.465 / 435.565
SEEDS 23 Jul 19:41:01 19:44:16 22° 63° (ENE) 19:47:30 437.485
NOAA 15 23 Jul 19:45:02 19:49:16 25° 267° (W) 19:53:32 137.62
HO-68 23 Jul 19:53:52 20:00:55 62° 66° (ENE) 20:08:00 435.675
COMPASS 1 23 Jul 20:00:11 20:03:33 24° 64° (ENE) 20:06:54 437.405
YUBILEINY 23 Jul 20:07:08 20:13:59 24° 56° (NE) 20:20:47 435.215
GONETS M04 23 Jul 20:07:27 20:10:34 12° 318° (NW) 20:13:41
AO-85 23 Jul 20:07:33 20:09:36 12° 357° (N) 20:11:35 145.980
GOMX 1 23 Jul 20:10:28 20:13:33 20° 269° (W) 20:16:42 467.674
Oscar 11 23 Jul 20:11:24 20:13:21 13° 57° (ENE) 20:15:19 145.826/435.025
CANX-2 23 Jul 20:14:36 20:18:51 67° 74° (ENE) 20:23:07 2200.000
DOVE 4 23 Jul 20:22:33 20:26:21 31° 266° (W) 20:30:21 437.250
Cubesat XI-IV 23 Jul 20:27:57 20:31:06 16° 273° (W) 20:34:16 437.490
CUTE 1.7 + AOD 2 23 Jul 20:28:48 20:33:05 82° 76° (ENE) 20:37:23 437.475
Cosmos 2504 23 Jul 20:31:52 20:34:52 12° 42° (NE) 20:37:48 435.465 / 435.565
AAUSAT CUBESAT 2 23 Jul 20:31:55 20:35:46 38° 69° (ENE) 20:39:38 437.432
STRAND 1 23 Jul 20:34:01 20:39:02 51° 100° (E) 20:43:59 437.568
CUBESAT XI-V 23 Jul 20:43:11 20:45:25 14° 304° (NW) 20:47:39 437.345
UWE-3 23 Jul 20:45:42 20:49:52 36° 67° (ENE) 20:54:08 435.000/436.395/437.385
PHONESAT 2.4 23 Jul 20:51:50 20:53:42 15° 170° (S) 20:55:33 2401.200-2431.200
M-CUBED/EXP-1 PRIME 23 Jul 20:52:44 20:55:34 20° 55° (NE) 20:58:35 437.505
ZACube-1 23 Jul 20:55:32 20:59:31 31° 66° (ENE) 21:03:33 437.345
PCSat 23 Jul 20:56:16 21:01:25 46° 116° (ESE) 21:06:36 145.827
FUNcube-1 23 Jul 20:56:53 21:00:50 30° 65° (ENE) 21:04:51 145.935
CUBEBUG 2 23 Jul 20:58:57 21:03:28 66° 73° (ENE) 21:08:09 437.445
CINEMA 3 23 Jul 21:02:25 21:06:39 41° 263° (W) 21:11:07 145.822/145.860
BEESAT 2 23 Jul 21:04:38 21:08:31 58° 124° (SE) 21:12:27 435.950
BEESAT 3 23 Jul 21:06:29 21:10:25 79° 309° (NW) 21:14:24 437.485
HUMSAT D 23 Jul 21:11:22 21:13:09 12° 57° (ENE) 21:14:55 437.325/437.525
SEEDS 23 Jul 21:15:37 21:19:42 45° 261° (W) 21:23:47 437.485
AUBIESAT-1 23 Jul 21:21:36 21:24:59 31° 60° (ENE) 21:28:38 437.475
DELFI C3 23 Jul 21:28:12 21:31:37 28° 66° (ENE) 21:35:03 145.870
Cosmos 2491 23 Jul 21:34:54 21:41:55 29° 80° (E) 21:48:56 435.465 / 435.565
COMPASS 1 23 Jul 21:34:58 21:38:55 40° 262° (W) 21:42:53 437.405
HO-68 23 Jul 21:42:46 21:49:03 32° 266° (W) 21:55:24 435.675
Oscar 11 23 Jul 21:44:28 21:48:50 89° 76° (ENE) 21:53:13 145.826/435.025
AO-85 23 Jul 21:48:49 21:51:59 17° 22° (NNE) 21:55:00 145.980
CANX-2 23 Jul 21:52:48 21:55:10 14° 272° (W) 21:57:32 2200.000
O/OREOS (USA 219) 23 Jul 22:01:50 22:06:01 42° 109° (ESE) 22:10:15 437.305
YUBILEINY 23 Jul 22:03:19 22:12:15 86° 81° (E) 22:21:05 435.215
CUTE 1.7 + AOD 2 23 Jul 22:07:56 22:09:31 12° 273° (W) 22:11:06 437.475
AAUSAT CUBESAT 2 23 Jul 22:07:59 22:11:22 24° 267° (W) 22:14:46 437.432
PRISM 23 Jul 22:08:04 22:12:08 63° 102° (ESE) 22:16:11 437.425
STRAND 1 23 Jul 22:13:42 22:17:57 27° 299° (WNW) 22:22:10 437.568
ESTCUBE 1 23 Jul 22:20:46 22:22:55 13° 56° (NE) 22:25:04 437.505/2401.250
UWE-3 23 Jul 22:22:21 22:26:22 30° 266° (W) 22:30:29 435.000/436.395/437.385
Cosmos 2504 23 Jul 22:23:01 22:31:04 46° 69° (ENE) 22:38:32 435.465 / 435.565
M-CUBED/EXP-1 PRIME 23 Jul 22:26:11 22:29:46 47° 255° (WSW) 22:33:42 437.505
PHONESAT 2.4 23 Jul 22:27:34 22:29:33 16° 187° (S) 22:31:32 2401.200-2431.200
ZACube-1 23 Jul 22:31:36 22:35:45 35° 265° (W) 22:39:57 437.345
FUNcube-1 23 Jul 22:32:50 22:37:00 36° 264° (W) 22:41:14 145.935
AIST 2 23 Jul 22:32:59 22:36:30 28° 117° (ESE) 22:40:03 435.215
CUBEBUG 2 23 Jul 22:37:37 22:40:35 17° 272° (W) 22:43:37 437.445
PCSat 23 Jul 22:39:52 22:44:56 38° 317° (NW) 22:50:02 145.827
ANTELSAT 23 Jul 22:43:07 22:46:09 17° 89° (E) 22:49:10 437.575/2403.000
BEESAT 2 23 Jul 22:43:23 22:46:40 24° 325° (NW) 22:49:59 435.950
HUMSAT D 23 Jul 22:43:46 22:48:05 86° 77° (ENE) 22:52:26 437.325/437.525
BEESAT 3 23 Jul 22:46:04 22:48:44 17° 331° (NNW) 22:51:26 437.485
VELOX 1 23 Jul 22:53:16 22:55:58 16° 58° (ENE) 22:58:40 145.980
AUBIESAT-1 23 Jul 22:56:10 22:59:28 28° 260° (W) 23:03:01 437.475
DELFI C3 23 Jul 23:02:54 23:06:26 29° 265° (W) 23:09:58 145.870
CUBEBUG 1 23 Jul 23:04:01 23:07:15 21° 62° (ENE) 23:10:31 437.445
SPROUT 23 Jul 23:17:36 23:19:40 13° 57° (ENE) 23:21:44 437.525
Oscar 11 23 Jul 23:24:20 23:25:37 11° 274° (W) 23:26:53 145.826/435.025
TIGRISAT 23 Jul 23:25:03 23:29:27 38° 97° (E) 23:33:45 435.000
AO-85 23 Jul 23:28:55 23:33:28 57° 45° (NE) 23:37:37 145.980
Cosmos 2491 23 Jul 23:29:14 23:37:57 75° 282° (WNW) 23:46:42 435.465 / 435.565
AISAT 23 Jul 23:35:56 23:40:00 39° 67° (ENE) 23:44:06 437.250
UNISAT 6 23 Jul 23:39:59 23:44:37 56° 100° (E) 23:49:09 437.425
ISS 23 Jul 23:41:04 23:43:49 25° 144° (SE) 23:46:35 145.825
O/OREOS (USA 219) 23 Jul 23:41:43 23:45:34 28° 309° (NW) 23:49:27 437.305
PRISM 23 Jul 23:44:29 23:47:01 16° 300° (WNW) 23:49:31 437.425
DX 1 23 Jul 23:49:17 23:53:18 38° 67° (ENE) 23:57:19 434.975-435.025
50 SAT 23 Jul 23:52:50 23:56:24 51° 72° (ENE) 00:00:00 437.505
ESTCUBE 1 23 Jul 23:54:33 23:59:03 88° 79° (E) 00:03:35 437.505/2401.250
YUBILEINY 24 Jul 00:01:20 00:07:56 24° 283° (WNW) 00:14:32 435.215
NANOSAT C BR1 24 Jul 00:04:38 00:07:30 17° 90° (E) 00:10:21 145.865
UKube-1 24 Jul 00:10:03 00:14:12 49° 69° (ENE) 00:18:23 .
DUCHIFAT 1 24 Jul 00:10:43 00:13:43 18° 91° (E) 00:16:44 145.980
AIST 2 24 Jul 00:10:54 00:14:50 43° 317° (NW) 00:18:49 435.215
Cosmos 2504 24 Jul 00:16:39 00:24:30 46° 273° (W) 00:31:48 435.465 / 435.565
ANTELSAT 24 Jul 00:18:40 00:23:20 66° 288° (WNW) 00:27:54 437.575/2403.000
HUMSAT D 24 Jul 00:22:51 00:24:19 11° 274° (W) 00:25:48 437.325/437.525
QB50P1 24 Jul 00:24:11 00:27:54 28° 95° (E) 00:31:35 145.935-145.965
TISAT 1 24 Jul 00:26:13 00:28:56 17° 60° (ENE) 00:31:40 437.305
PCSat 24 Jul 00:26:55 00:29:55 15° 341° (NNW) 00:32:55 145.827
VELOX 1 24 Jul 00:27:33 00:31:55 72° 257° (WSW) 00:36:20 145.980
POPSAT HIP 1 24 Jul 00:30:10 00:34:02 31° 96° (E) 00:37:51 437.405
CUBEBUG 1 24 Jul 00:39:04 00:43:15 49° 260° (W) 00:47:29 437.445
AIST 1 24 Jul 00:40:49 00:44:23 24° 69° (ENE) 00:47:58
BUGSAT 1 24 Jul 00:41:10 00:44:06 18° 91° (E) 00:47:01 437.445
QB50P2 24 Jul 00:49:54 00:54:07 52° 100° (E) 00:58:19 145.880/145.840
SPROUT 24 Jul 00:50:42 00:54:59 86° 254° (WSW) 00:59:19 437.525
POLYITAN 1 24 Jul 00:52:32 00:56:47 53° 101° (E) 01:00:59 437.675
ITUPSAT 1 24 Jul 00:58:46 00:59:30 10° 51° (NE) 01:00:13 437.325
TIGRISAT 24 Jul 01:01:57 01:06:01 29° 296° (WNW) 01:10:00 435.000
AO-85 24 Jul 01:10:10 01:13:30 21° 247° (WSW) 01:16:39 145.980
AISAT 24 Jul 01:12:57 01:16:36 26° 266° (W) 01:20:18 437.250
ISS 24 Jul 01:16:45 01:20:01 81° 342° (NNW) 01:23:17 145.825
UNISAT 6 24 Jul 01:17:24 01:20:58 22° 299° (WNW) 01:24:28 437.425
DX 1 24 Jul 01:25:59 01:29:35 25° 266° (W) 01:33:13 434.975-435.025
Oscar 19 24 Jul 01:27:20 01:28:53 11° 85° (E) 01:30:27 437.125/150
50 SAT 24 Jul 01:28:20 01:30:21 14° 269° (W) 01:32:23 437.505
Cosmos 2491 24 Jul 01:30:30 01:36:34 20° 307° (NW) 01:42:40 435.465 / 435.565
JAS-2 24 Jul 01:33:06 01:38:00 40° 98° (E) 01:43:08 435.910
ESTCUBE 1 24 Jul 01:34:52 01:36:31 12° 273° (W) 01:38:11 437.505/2401.250
Cosmos 2499 24 Jul 01:34:58 01:38:56 14° 46° (NE) 01:42:46 435.465 / 435.565
NANOSAT C BR1 24 Jul 01:39:23 01:43:35 56° 288° (WNW) 01:47:45 145.865
DUCHIFAT 1 24 Jul 01:45:33 01:49:43 52° 289° (WNW) 01:53:52 145.980
UKube-1 24 Jul 01:47:22 01:50:31 20° 268° (W) 01:53:43 .
SWISSCUBE 24 Jul 01:49:57 01:54:04 29° 63° (ENE) 01:58:11 437.505
AIST 2 24 Jul 01:52:19 01:54:23 13° 339° (NNW) 01:56:26 435.215
ANTELSAT 24 Jul 01:57:54 01:59:08 11° 307° (NW) 02:00:22 437.575/2403.000
QB50P1 24 Jul 01:59:49 02:03:43 34° 293° (WNW) 02:07:36 145.935-145.965
TISAT 1 24 Jul 01:59:59 02:04:08 62° 258° (WSW) 02:08:21 437.305
POPSAT HIP 1 24 Jul 02:05:59 02:09:47 31° 294° (WNW) 02:13:35 437.405
BEESAT 3 24 Jul 02:06:14 02:07:33 11° 19° (NNE) 02:08:52 437.485
GONETS M04 24 Jul 02:10:21 02:17:59 31° 62° (ENE) 02:25:35
BEESAT 24 Jul 02:11:20 02:15:48 40° 66° (ENE) 02:20:16 436.000
PCSat 24 Jul 02:13:44 02:15:47 12° 8° (N) 02:17:50 145.827
BUGSAT 1 24 Jul 02:15:38 02:19:47 53° 289° (WNW) 02:23:56 437.445
Gurwin Techsat 1B 24 Jul 02:16:30 02:19:35 15° 87° (E) 02:22:38 435.225
AIST 1 24 Jul 02:18:07 02:22:06 37° 268° (W) 02:26:07
QB50P2 24 Jul 02:26:27 02:29:35 20° 298° (WNW) 02:32:44 145.880/145.840
POLYITAN 1 24 Jul 02:29:06 02:32:14 20° 299° (WNW) 02:35:21 437.675
ITUPSAT 1 24 Jul 02:31:39 02:36:22 59° 70° (ENE) 02:41:06 437.325
ISS 24 Jul 02:53:27 02:56:39 52° 2° (N) 02:59:52 145.825
ITAMSAT 1 24 Jul 02:54:06 02:55:05 10° 84° (E) 02:56:05 435.822/435.867
Oscar 19 24 Jul 03:03:55 03:09:07 75° 104° (ESE) 03:14:17 437.125/150
KKS-1 24 Jul 03:17:39 03:21:12 24° 62° (ENE) 03:24:48 437.445
JAS-2 24 Jul 03:18:31 03:23:05 32° 296° (WNW) 03:27:50 435.910
MOZHAYETS 4 24 Jul 03:25:08 03:29:06 29° 64° (ENE) 03:33:05
Cosmos 2499 24 Jul 03:26:25 03:34:25 55° 72° (ENE) 03:41:45 435.465 / 435.565
SWISSCUBE 24 Jul 03:27:12 03:31:44 41° 262° (W) 03:36:17 437.505
BEESAT 2 24 Jul 03:41:33 03:44:51 24° 35° (NE) 03:48:08 435.950
BEESAT 3 24 Jul 03:42:41 03:46:21 34° 41° (NE) 03:50:01 437.485
BEESAT 24 Jul 03:49:32 03:53:41 29° 265° (W) 03:57:52 436.000
Gurwin Techsat 1B 24 Jul 03:54:53 04:00:15 86° 286° (WNW) 04:05:35 435.225
CUSAT 1 24 Jul 03:55:31 03:57:30 13° 93° (E) 03:59:17 437.405
PCSat 24 Jul 03:56:52 04:01:15 24° 33° (NNE) 04:05:37 145.827
AO-7 24 Jul 04:01:24 04:08:01 25° 91° (E) 04:14:34 29.400- 29.500
STARS 24 Jul 04:05:44 04:09:44 35° 66° (ENE) 04:13:46 437.465
GONETS M04 24 Jul 04:06:54 04:15:40 73° 265° (W) 04:24:26
ITUPSAT 1 24 Jul 04:11:05 04:14:35 20° 269° (W) 04:18:07 437.325
ISS 24 Jul 04:29:58 04:33:14 81° 202° (SSW) 04:36:30 145.825
ITAMSAT 1 24 Jul 04:30:18 04:35:31 71° 103° (ESE) 04:40:41 435.822/435.867
CUBESAT XI-V 24 Jul 04:35:23 04:38:47 21° 61° (ENE) 04:42:12 437.345
Oscar 19 24 Jul 04:44:16 04:47:54 20° 303° (WNW) 04:51:30 437.125/150
KKS-1 24 Jul 04:53:18 04:57:33 45° 261° (W) 05:01:51 437.445
MOZHAYETS 4 24 Jul 05:01:49 05:06:09 39° 263° (W) 05:10:31
AIST 2 24 Jul 05:12:06 05:14:53 17° 27° (NNE) 05:17:41 435.215
BEESAT 2 24 Jul 05:19:03 05:23:01 60° 235° (SW) 05:26:56 435.950
Cosmos 2499 24 Jul 05:20:04 05:27:12 36° 276° (W) 05:33:52 435.465 / 435.565
BEESAT 3 24 Jul 05:20:26 05:24:02 33° 241° (WSW) 05:27:36 437.485
DANDE 24 Jul 05:22:50 05:28:26 50° 98° (E) 05:32:40 436.750
CUSAT 1 24 Jul 05:35:16 05:39:23 47° 284° (WNW) 05:42:36 437.405
Gurwin Techsat 1B 24 Jul 05:36:13 05:39:28 17° 306° (NW) 05:42:42 435.225
PCSat 24 Jul 05:39:55 05:45:24 89° 59° (ENE) 05:50:50 145.827
STARS 24 Jul 05:42:20 05:46:09 28° 265° (W) 05:50:00 437.465
AO-7 24 Jul 05:53:21 06:01:46 85° 292° (WNW) 06:10:07 29.400- 29.500
HORYU 2 24 Jul 06:04:18 06:08:31 38° 98° (E) 06:12:41 437.375
GONETS M04 24 Jul 06:05:44 06:10:53 17° 288° (WNW) 06:16:03
ISS 24 Jul 06:06:57 06:09:18 18° 220° (SW) 06:11:38 145.825
ITAMSAT 1 24 Jul 06:10:41 06:14:29 21° 303° (WNW) 06:18:16 435.822/435.867
CUBESAT XI-V 24 Jul 06:11:16 06:15:49 57° 260° (W) 06:20:23 437.345
NOAA 15 24 Jul 06:16:25 06:19:13 14° 87° (E) 06:22:00 137.62
STRAND 1 24 Jul 06:16:51 06:20:25 19° 57° (ENE) 06:23:59 437.568
O/OREOS (USA 219) 24 Jul 06:28:31 06:32:18 25° 50° (NE) 06:36:05 437.305
GOMX 1 24 Jul 06:29:41 06:31:29 12° 86° (E) 06:33:19 467.674
BRITE-PL 24 Jul 06:45:44 06:49:52 31° 96° (E) 06:54:15 437.365/2234.400
AIST 2 24 Jul 06:49:56 06:54:07 69° 48° (NE) 06:58:17 435.215
Cubesat XI-IV 24 Jul 06:58:31 07:02:56 25° 92° (E) 07:07:19 437.490
DANDE 24 Jul 07:07:02 07:11:15 22° 290° (WNW) 07:14:42 436.750
RS-15 24 Jul 07:19:45 07:29:45 37° 106° (ESE) 07:40:12 29.354- 29.394
CUTE-I 24 Jul 07:22:58 07:28:00 40° 97° (E) 07:32:59 437.470
PCSat 24 Jul 07:24:43 07:28:04 17° 255° (WSW) 07:31:23 145.827
NOAA 18 24 Jul 07:29:42 07:35:03 44° 99° (E) 07:40:18 137.9125
PRISM 24 Jul 07:29:46 07:30:34 10° 55° (NE) 07:31:22 437.425
Cosmos 2491 24 Jul 07:38:33 07:44:27 19° 52° (NE) 07:50:19 435.465 / 435.565
HORYU 2 24 Jul 07:41:07 07:44:56 28° 296° (WNW) 07:48:44 437.375
AO-7 24 Jul 07:46:58 07:53:31 27° 314° (NW) 08:00:03 29.400- 29.500
STRAND 1 24 Jul 07:53:52 07:59:02 77° 256° (WSW) 08:04:13 437.568
NOAA 15 24 Jul 07:54:27 07:59:44 90° 301° (WNW) 08:05:01 137.62
LilacSat-2 24 Jul 07:55:49 07:59:44 87° 101° (E) 08:03:36 437.200
GOMX 1 24 Jul 08:05:21 08:10:14 80° 103° (ESE) 08:15:27 467.674
O/OREOS (USA 219) 24 Jul 08:07:35 08:11:57 49° 250° (WSW) 08:16:20 437.305
CUTE 1.7 + AOD 2 24 Jul 08:12:07 08:13:09 11° 86° (E) 08:14:12 437.475
DOVE 4 24 Jul 08:15:41 08:20:36 52° 99° (E) 08:25:43 437.250
BRITE-PL 24 Jul 08:24:11 08:28:24 37° 292° (WNW) 08:32:56 437.365/2234.400
AIST 2 24 Jul 08:29:27 08:32:09 17° 247° (WSW) 08:34:49 435.215
Cubesat XI-IV 24 Jul 08:38:06 08:43:20 54° 292° (WNW) 08:48:31 437.490
CUBEBUG 2 24 Jul 08:47:54 08:49:35 12° 85° (E) 08:51:15 437.445
CINEMA 3 24 Jul 08:52:23 08:57:05 38° 96° (E) 09:01:46 145.822/145.860
SEEDS 24 Jul 08:55:46 08:59:03 22° 92° (E) 09:02:18 437.485
PRISM 24 Jul 09:01:06 09:05:10 79° 74° (ENE) 09:09:16 437.425
CUTE-I 24 Jul 09:03:11 09:08:00 35° 296° (WNW) 09:12:47 437.470
HO-68 24 Jul 09:04:36 09:11:27 44° 98° (E) 09:18:13 435.675
UNISAT 6 24 Jul 09:08:54 09:10:58 13° 55° (NE) 09:13:02 437.425
NOAA 18 24 Jul 09:10:38 09:15:35 34° 298° (WNW) 09:20:30 137.9125
COMPASS 1 24 Jul 09:13:51 09:17:13 24° 93° (E) 09:20:34 437.405
YUBILEINY 24 Jul 09:15:53 09:21:56 21° 75° (ENE) 09:28:01 435.215
Oscar 11 24 Jul 09:29:22 09:31:15 13° 87° (E) 09:33:09 145.826/435.025
RS-15 24 Jul 09:29:29 09:41:09 81° 312° (NW) 09:53:29 29.354- 29.394
CANX-2 24 Jul 09:31:16 09:35:31 78° 103° (ESE) 09:39:43 2200.000
LilacSat-2 24 Jul 09:32:14 09:33:25 11° 302° (WNW) 09:34:36 437.200
Cosmos 2491 24 Jul 09:34:25 09:43:11 71° 77° (ENE) 09:51:55 435.465 / 435.565
NOAA 15 24 Jul 09:35:32 09:38:50 17° 305° (NW) 09:42:07 137.62
STRAND 1 24 Jul 09:37:23 09:39:05 11° 275° (W) 09:40:47 437.568
GOMX 1 24 Jul 09:44:40 09:47:49 18° 301° (WNW) 09:51:07 467.674
AAUSAT CUBESAT 2 24 Jul 09:45:13 09:49:07 39° 98° (E) 09:52:59 437.432
CUTE 1.7 + AOD 2 24 Jul 09:45:23 09:49:38 86° 288° (WNW) 09:53:51 437.475
ANTELSAT 24 Jul 09:45:25 09:49:10 25° 63° (ENE) 09:52:59 437.575/2403.000
SO-50 24 Jul 09:52:02 09:56:44 49° 122° (ESE) 10:01:24 436.795
DOVE 4 24 Jul 09:53:56 09:58:03 26° 297° (WNW) 10:02:18 437.250
UWE-3 24 Jul 10:07:16 10:11:45 44° 98° (E) 10:16:07 435.000/436.395/437.385
ZACube-1 24 Jul 10:15:34 10:19:48 36° 96° (E) 10:23:55 437.345
FUNcube-1 24 Jul 10:16:34 10:20:44 34° 96° (E) 10:24:47 145.935
Cubesat XI-IV 24 Jul 10:20:57 10:22:16 11° 312° (NW) 10:23:36 437.490
CUBEBUG 2 24 Jul 10:22:09 10:26:57 85° 102° (ESE) 10:31:39 437.445
HUMSAT D 24 Jul 10:25:48 10:26:43 11° 86° (E) 10:27:38 437.325/437.525
TIGRISAT 24 Jul 10:27:09 10:31:39 54° 70° (ENE) 10:36:15 435.000
CINEMA 3 24 Jul 10:29:40 10:34:08 33° 294° (WNW) 10:38:36 145.822/145.860
SEEDS 24 Jul 10:30:59 10:34:56 41° 290° (WNW) 10:38:50 437.485
AUBIESAT-1 24 Jul 10:31:03 10:33:39 15° 94° (E) 10:36:15 437.475
DELFI C3 24 Jul 10:36:11 10:39:30 25° 94° (E) 10:42:48 145.870
PRISM 24 Jul 10:39:41 10:41:02 11° 272° (W) 10:42:23 437.425
UNISAT 6 24 Jul 10:42:16 10:46:53 78° 74° (ENE) 10:51:37 437.425
COMPASS 1 24 Jul 10:49:04 10:52:55 37° 291° (WNW) 10:56:43 437.405
HO-68 24 Jul 10:52:25 10:59:14 47° 298° (WNW) 11:06:00 435.675
NANOSAT C BR1 24 Jul 11:00:33 11:03:50 22° 63° (ENE) 11:07:09 145.865
Oscar 11 24 Jul 11:03:37 11:07:58 78° 286° (WNW) 11:12:16 145.826/435.025
Cosmos 2504 24 Jul 11:05:43 11:13:26 35° 83° (E) 11:21:08 435.465 / 435.565
DUCHIFAT 1 24 Jul 11:06:21 11:09:44 24° 63° (ENE) 11:13:08 145.980
CANX-2 24 Jul 11:08:35 11:10:48 14° 302° (WNW) 11:13:01 2200.000
YUBILEINY 24 Jul 11:08:38 11:17:25 85° 97° (E) 11:26:19 435.215
QB50P1 24 Jul 11:20:19 11:24:10 35° 67° (ENE) 11:28:04 145.935-145.965
AAUSAT CUBESAT 2 24 Jul 11:21:08 11:24:25 23° 296° (WNW) 11:27:41 437.432
ANTELSAT 24 Jul 11:21:10 11:25:37 47° 261° (W) 11:30:11 437.575/2403.000
CUTE 1.7 + AOD 2 24 Jul 11:23:13 11:24:48 12° 303° (WNW) 11:26:23 437.475
POPSAT HIP 1 24 Jul 11:26:19 11:30:16 39° 68° (ENE) 11:34:17 437.405
Cosmos 2491 24 Jul 11:32:04 11:39:19 31° 279° (W) 11:46:36 435.465 / 435.565
SO-50 24 Jul 11:32:55 11:37:24 35° 322° (NW) 11:41:50 436.795
BUGSAT 1 24 Jul 11:34:49 11:37:57 21° 63° (ENE) 11:41:07 437.445
M-CUBED/EXP-1 PRIME 24 Jul 11:34:57 11:39:34 66° 108° (ESE) 11:44:16 437.505
UWE-3 24 Jul 11:44:08 11:47:59 26° 297° (WNW) 11:51:46 435.000/436.395/437.385
ESTCUBE 1 24 Jul 11:44:22 11:46:44 14° 88° (E) 11:49:05 437.505/2401.250
RS-15 24 Jul 11:44:34 11:55:41 42° 342° (NNW) 12:07:15 29.354- 29.394
QB50P2 24 Jul 11:46:05 11:50:19 65° 72° (ENE) 11:54:34 145.880/145.840
POLYITAN 1 24 Jul 11:48:43 11:52:57 67° 73° (ENE) 11:57:14 437.675
JAS-2 24 Jul 11:50:05 11:55:11 31° 63° (ENE) 11:59:53 435.910
ZACube-1 24 Jul 11:52:01 11:55:59 30° 295° (WNW) 11:59:53 437.345
FUNcube-1 24 Jul 11:52:55 11:56:54 31° 294° (WNW) 12:00:49 145.935
HUMSAT D 24 Jul 11:58:44 12:03:00 88° 279° (W) 12:07:10 437.325/437.525
CUBEBUG 2 24 Jul 12:00:07 12:02:55 16° 303° (WNW) 12:05:42 437.445
AUBIESAT-1 24 Jul 12:03:59 12:08:35 81° 293° (WNW) 12:13:15 437.475
TIGRISAT 24 Jul 12:05:12 12:08:39 21° 269° (W) 12:12:11 435.000
DELFI C3 24 Jul 12:10:52 12:14:24 32° 292° (WNW) 12:17:54 145.870
VELOX 1 24 Jul 12:14:30 12:17:19 16° 90° (E) 12:20:09 145.980
UNISAT 6 24 Jul 12:21:40 12:24:12 14° 273° (W) 12:26:44 437.425
CUBEBUG 1 24 Jul 12:23:46 12:27:16 23° 93° (E) 12:30:45 437.445
SPROUT 24 Jul 12:34:14 12:36:11 13° 88° (E) 12:38:08 437.525
NANOSAT C BR1 24 Jul 12:35:16 12:39:19 44° 261° (W) 12:43:26 145.865
Oscar 11 24 Jul 12:42:01 12:43:21 11° 304° (NW) 12:44:41 145.826/435.025
